#timestamp,LO_Frequency,Hit,StdDev 
1648569615.4,286047000.7,N
1648569635.2,286046998.3,N
1648569655.0,286046996.6,N
1648569655.9,286046996.6,N
1648569675.8,286046998.6,N
1648569695.6,286046998.2,N
1648569715.5,286046998.6,N
1648569735.3,286047001.1,N
1648569755.1,286046998.8,N
1648569775.9,286047001.2,N
1648569795.7,286047001.0,N
1648569815.5,286047001.0,N
1648569835.4,286047002.3,N
1648569855.2,286046999.8,N
1648569875.1,286047000.8,N
1648569876.0,286047000.8,N
1648569895.8,286046998.9,N
1648569915.6,286046998.8,N
1648569935.5,286046999.0,N
1648569955.3,286046996.5,N
1648569975.1,286046997.2,N
1648569995.9,286046996.7,N
1648570015.7,286046997.4,N
1648570035.6,286046996.5,N
1648570055.4,286046995.4,N
1648570075.2,286046997.9,N
1648570095.1,286046997.9,N
1648570096.0,286046997.9,N
1648570115.8,286046997.1,N
1648570135.7,286047000.8,N
1648570155.5,286046998.2,N
1648570175.3,286047000.3,N
1648570195.2,286047001.0,N
1648570215.0,286047001.0,N
1648570215.9,286047001.0,N
1648570235.7,286047002.0,N
1648570255.6,286047003.8,N
1648570275.4,286047004.2,N
1648570295.3,286047001.4,N
1648570315.1,286047003.6,N
1648570335.8,286047004.2,N
1648570355.7,286047003.2,N
1648570375.5,286047004.1,N
1648570395.4,286047003.2,N
1648570415.2,286047002.0,N
1648570435.0,286047002.3,N
1648570435.9,286047002.3,N
1648570455.8,286047002.3,N
1648570475.6,286047000.2,N
1648570495.5,286047002.4,N
1648570515.3,286047000.1,N
1648570535.1,286047002.3,N
1648570555.9,286047002.4,N
1648570575.7,286047002.6,N
1648570595.5,286047000.8,N
1648570615.4,286046999.7,N
1648570635.2,286047000.4,N
1648570655.1,286046999.0,N
1648570656.0,286046999.0,N
1648570675.8,286046996.6,N
1648570695.6,286046999.1,N
1648570715.5,286047001.2,N
1648570735.3,286047002.1,N
1648570755.2,286047000.2,N
1648570775.9,286047000.3,N
1648570795.7,286046998.9,N
1648570815.6,286046998.5,N
1648570835.4,286047000.8,N
1648570855.2,286047000.6,N
1648570875.1,286047000.1,N
1648570876.0,286047000.1,N
1648570895.8,286046998.1,N
1648570915.7,286046998.1,N
1648570935.5,286047000.5,N
1648570955.3,286046999.9,N
1648570975.2,286047000.2,N
1648570995.0,286047001.8,N
1648570995.9,286047001.8,N
1648571015.7,286047001.2,N
1648571035.6,286046998.3,N
1648571055.4,286046999.8,N
1648571075.3,286047000.2,N
1648571095.1,286047000.5,N
1648571096.0,286047000.5,N
1648571115.8,286047000.0,N
1648571135.7,286046999.7,N
1648571155.5,286047001.3,N
1648571175.4,286047004.3,Y
1648571195.2,286047004.2,P
1648571215.0,286047001.7,N
1648571215.9,286047001.7,N
1648571235.8,286047001.4,N
1648571255.6,286047001.4,N
1648571275.4,286047004.4,Y
1648571295.3,286047000.0,P
1648571315.1,286047000.2,N
1648571335.9,286046998.4,N
1648571355.7,286046998.2,N
1648571375.5,286046998.6,N
1648571395.4,286046998.8,N
1648571415.2,286046998.5,N
1648571435.1,286047000.8,N
1648571436.0,286047000.8,N
1648571455.8,286047001.2,N
1648571475.6,286046998.5,N
1648571495.5,286046999.4,N
1648571515.3,286046996.7,N
1648571535.2,286046996.6,N
1648571555.9,286046996.6,N
1648571575.7,286046999.5,N
1648571595.6,286046998.4,N
1648571615.4,286046998.6,N
1648571635.2,286046998.1,N
1648571655.1,286047000.3,N
1648571656.0,286047000.3,N
1648571675.8,286047000.1,N
1648571695.7,286047002.8,N
1648571715.5,286047002.6,N
1648571735.3,286047000.8,N
1648571755.2,286047000.4,N
1648571775.0,286047000.4,N
1648571775.9,286047000.4,N
1648571795.8,286047000.3,N
1648571815.6,286046999.9,N
1648571835.4,286047002.5,N
1648571855.3,286047000.2,N
1648571875.1,286047002.8,N
1648571895.8,286047000.1,N
1648571915.7,286046999.8,N
1648571935.5,286046999.7,N
1648571955.4,286047000.1,N
1648571975.2,286046999.7,N
1648571995.0,286047002.3,N
1648571995.9,286047002.3,N
1648572015.8,286047002.3,N
1648572035.6,286047001.4,N
1648572055.4,286047004.0,N
1648572075.3,286047003.5,N
1648572095.1,286047003.5,N
1648572115.9,286047003.2,N
1648572135.7,286047004.4,N
1648572155.5,286047003.5,N
1648572175.4,286047003.7,N
1648572195.2,286047003.1,N
1648572215.0,286047003.7,N
1648572246.0,286047004.2,E
1648572255.9,286047002.3,N
1648572275.7,286046998.7,P
1648572295.6,286046999.5,N
1648572315.4,286046996.7,N
1648572335.2,286046997.9,N
1648572355.1,286046997.8,N
1648572356.0,286046997.8,N
1648572375.8,286046999.6,N
1648572395.7,286046999.6,N
1648572415.5,286046998.3,N
1648572435.3,286046999.4,N
1648572455.2,286046998.6,N
1648572475.0,286046999.6,N
1648572475.9,286046999.6,N
1648572495.7,286046996.6,N
1648572515.6,286046999.6,N
1648572535.4,286046999.1,N
1648572555.3,286046998.5,N
1648572575.1,286046998.5,N
1648572576.0,286046998.5,N
1648572595.8,286046999.1,N
1648572615.7,286046999.1,N
1648572635.5,286046996.9,N
1648572685.4,286046998.6,E
1648572695.3,286047000.8,N
1648572715.1,286047001.0,P
1648572735.9,286047001.2,P
1648572755.7,286047000.2,N
1648572775.6,286047000.5,N
1648572795.4,286047000.5,N
1648572815.2,286047000.5,N
1648572835.1,286047000.6,N
1648572836.0,286047000.6,N
1648572855.8,286047002.8,Y
1648572875.6,286047000.3,P
1648572895.5,286047000.4,N
1648572915.3,286046999.8,N
1648572935.2,286047000.0,N
1648572955.9,286047000.5,N
1648572975.7,286046998.6,Y
1648572995.6,286046998.7,P
1648573015.4,286046998.4,N
1648573035.3,286047001.2,N
1648573055.1,286047000.3,N
1648573056.0,286047000.3,N
1648573075.8,286047001.1,N
1648573095.7,286046998.3,N
1648573115.5,286047001.1,N
1648573135.3,286046998.3,N
1648573155.2,286047000.7,N
1648573175.0,286047000.4,N
1648573175.9,286047000.4,N
1648573195.8,286047000.9,N
